Home > Weather > Jan Mayen > Past weeks

Flag for Norway Past Weather in Jan Mayen, Jan Mayen, Norway — Yesterday and Last 2 Weeks

Now
40 °F

Drizzle. Low clouds.


Feels Like: 40 °F
Forecast: 35 / 42 °F
Wind: 1 mph from West

Location: Jan Mayen

Current Time: May 30, 2016 at 3:20:18 AM

Latest Report: May 30, 2016 at 2:00 AM


Visibility: 13 mi

Pressure: 30.12 "Hg

Humidity: 93%

Dew Point: 38 °F

Location of Jan MayenLocation

Past Weather in Jan Mayen — Graph

°F

Jan Mayen Temperature Yesterday

Maximum temperature yesterday: 41 °F (at 11:00 PM)
Minimum temperature yesterday: 38 °F (at 2:00 AM)
Average temperature yesterday: 39 °F

High & Low Weather Summary for the Past Weeks

 TemperatureHumidityPressure
High43 °F (May 22, 12:00 PM)97% (May 26, 1:00 PM)30.35 "Hg (May 26, 1:00 PM)
Low27 °F (May 16, 5:00 AM)55% (May 21, 6:00 PM)29.60 "Hg (May 26, 7:00 PM)
Average35 °F83%29.92 "Hg
* Reported May 15 4:00 AM — May 30 2:00 AM, Jan Mayen, Weather by CustomWeather, © 2016

Note: Actual official high and low records may vary slightly from our data, if they occured in-between our weather recording intervals... More about our weather records

Advertising

Jan Mayen Weather History for the Previous 24 Hours

Scroll right to see more
 ConditionsComfort  
Time TempWeatherWind HumidityBarometerVisibility
2:00 AM
Mon, May 30
40 °FDrizzle. Low clouds.1 mph93%30.12 "Hg12 mi
1:00 AM40 °FQuite cool.1 mph93%30.13 "HgN/A
12:00 AM41 °FQuite cool.1 mph92%30.14 "HgN/A
11:00 PM
Sun, May 29
41 °FQuite cool.1 mph91%30.14 "HgN/A
10:00 PM41 °FQuite cool.1 mph90%30.15 "HgN/A
9:00 PM41 °FQuite cool.2 mph87%30.15 "HgN/A
8:00 PM40 °FLow clouds.1 mph88%30.16 "Hg16 mi
7:00 PM40 °FChilly.1 mph88%30.16 "HgN/A
6:00 PM40 °FQuite cool.1 mph87%30.18 "HgN/A
5:00 PM40 °FLow clouds.2 mph90%30.19 "Hg12 mi
4:00 PM39 °FChilly.2 mph91%30.19 "HgN/A
3:00 PM40 °FChilly.3 mph91%30.19 "HgN/A
2:00 PM39 °FLow clouds.3 mph92%30.19 "Hg12 mi
1:00 PM39 °FChilly.3 mph93%30.19 "HgN/A
12:00 PM39 °FChilly.3 mph94%30.19 "HgN/A
11:00 AM38 °FLow clouds.5 mph93%30.19 "Hg6 mi
10:00 AM39 °FChilly.5 mph93%30.19 "HgN/A
9:00 AM39 °FChilly.6 mph92%30.18 "HgN/A
8:00 AM39 °FLow clouds.7 mph91%30.18 "Hg12 mi
7:00 AM39 °FChilly.6 mph92%30.17 "HgN/A
6:00 AM38 °FChilly.6 mph93%30.18 "HgN/A
5:00 AM38 °FChilly.6 mph93%30.18 "HgN/A
4:00 AM38 °FChilly.5 mph94%30.17 "HgN/A
3:00 AM38 °FChilly.5 mph93%30.18 "HgN/A
Weather by CustomWeather, © 2016

See weather overviewHow to use our weather pages